Location: Saluda
(35.2377°N, 82.3468°W)
Time: 16:00:26
(UTC+00:00)

Explorer 11/Cluster Stage 4 - Pass Details

Date: 03 October 2022
Orbit: 466 x 1247 km, 28.8° (Epoch: 08 December)

Event Time Altitude Azimuth Distance (km) Brightness Sun altitude
Rises 17:11:00 0° 244° (WSW) 4,177 10.5 50.6°
Reaches altitude 10° 17:14:07 10° 239° (WSW) 3,188 10.1 50.6°
Maximum altitude 17:21:42 45° 170° (S) 1,516 10.6 50.6°
Drops below altitude 10° 17:28:24 10° 100° (E) 2,821 9.6 50.5°
Sets 17:31:00 0° 94° (E) 3,660 10.0 50.5°
